[[{"header":{"parameterUnit":"m.s-1","parameterCategory":1,"la1":30.2991,"la2":30.254,"lo1":-89.0895,"lo2":-89.0444,"dy":0.0017,"dx":0.0017,"nx":28,"ny":28,"refTime":"2025-07-29T03:00:00:Z","depth":0,"parameterNumber":2,"parameterNumberName":"U-component_of_WINDS"},"data":[0,0,0,0,0,0,0,0,0,0,0,0,0,0,0,0,0,0,0,0,0,0,0,0,0,0,0,0,0,0,0,0,0,0,0,0,0,0,0,0,0,0,0,0,0,0,0,0,0,0,0,0,0,0,0,0,0,0,2.2565,2.2566,0,2.2594,2.2594,2.2594,2.2542,2.254,2.2539,2.2537,2.2566,2.2568,2.2571,0,0,0,0,0,0,0,0,0,0,0,0,0,2.2468,2.247,2.2565,2.2566,2.2566,2.2594,2.2594,2.2594,2.2543,2.254,2.2538,2.2536,2.2565,2.2568,2.2571,0,0,0,0,0,0,0,0,0,0,0,0,0,2.2504,2.247,2.2565,2.2543,2.2542,2.2593,2.2594,2.2594,2.2543,2.254,2.2538,2.2535,2.2564,2.2568,2.2571,2.2646,0,0,2.2582,2.2584,0,0,0,0,0,0,0,0,2.2502,2.2508,2.2546,2.2545,2.2543,2.2562,2.257,2.2612,2.2544,2.2543,2.2537,2.2534,2.2567,2.257,2.2581,2.2647,2.2648,2.2583,2.2585,2.2586,2.2587,0,0,0,0,0,0,0,2.25,2.2507,2.2576,2.2547,2.2545,2.2533,2.2535,2.2578,2.2569,2.2542,2.2539,2.2543,2.2565,2.2578,2.2581,2.2649,2.2583,2.2586,2.2588,2.2589,2.2779,2.2781,0,0,0,0,0,0,2.25,2.2505,2.2576,2.2577,2.2516,2.2537,2.2539,2.2558,2.2568,2.2567,2.2545,2.254,2.2573,2.2577,2.2582,2.2671,2.2586,2.259,2.2592,2.2776,2.2779,2.2783,0,0,0,0,0,0,2.2498,2.2507,2.2574,2.254,2.2548,2.2541,2.2563,2.256,2.2572,2.257,2.2568,2.2559,2.2571,2.2577,2.2631,2.2671,2.2591,2.2595,2.2773,2.2777,2.2781,2.2848,0,0,0,0,0,0,2.2495,2.2506,2.2534,2.2541,2.255,2.2622,2.2565,2.2563,2.2579,2.2573,2.2583,2.2582,2.2569,2.2626,2.2634,2.2675,2.2597,2.2769,2.2774,2.278,2.2843,2.2855,2.2865,0,0,0,0,0,2.2492,2.2552,2.2536,2.2545,2.2584,2.2625,2.263,2.2614,2.2582,2.2611,2.2609,2.2582,2.2665,2.2631,2.2641,2.2683,2.2766,2.2773,2.2779,2.2838,2.2852,2.2864,0,0,0,0,0,0,2.2549,2.2552,2.2535,2.2598,2.2612,2.2616,2.2651,2.263,2.2652,2.2646,2.2625,2.2628,2.2686,2.269,2.2652,2.2756,2.271,2.2719,2.2752,2.2766,2.2776,2.2775,2.26,0,0,0,0,0,2.2569,2.2602,2.2602,2.2658,2.2666,2.2658,2.2675,2.2661,2.2675,2.268,2.2682,2.2697,2.2726,2.2746,2.2773,2.2843,2.2845,2.2876,2.2888,2.2897,2.2905,2.2943,2.2958,2.2804,2.2804,2.2804,0,0,2.2611,2.2616,2.2638,2.267,2.2679,2.2714,2.2663,2.2701,2.2727,2.2686,2.2737,2.2739,2.2754,2.2816,2.2844,2.2821,2.2948,2.2905,2.2912,2.2915,2.2952,2.2966,2.2979,2.2808,2.2807,2.2807,0,0,2.2705,2.2712,2.276,2.277,2.2785,2.2779,2.279,2.2798,2.2799,2.285,2.282,2.285,2.2901,2.2913,2.2926,2.3026,2.3002,2.3036,2.3094,2.3132,2.3144,2.3155,2.3192,2.3205,2.3043,2.3043,2.3044,0,2.2754,2.2805,2.2787,2.2828,2.2844,2.2809,2.2858,2.2869,2.2891,2.2903,2.2877,2.2941,2.2948,2.3014,2.3039,2.305,2.3063,2.3034,2.3144,2.3154,2.3164,2.3199,2.3213,2.3047,2.3047,2.3047,2.3046,0,2.2867,2.2902,2.294,2.2963,2.2983,2.3028,2.3017,2.3039,2.3025,2.3022,2.3075,2.3082,2.3111,2.3125,2.3111,2.319,2.3175,2.3147,2.3101,2.3183,2.3216,2.3229,2.3053,2.3052,2.3051,2.305,0,0,2.2997,2.301,2.3025,2.3035,2.3049,2.3077,2.3121,2.3149,2.3169,2.3186,2.3223,2.3268,2.3242,2.3257,2.3244,2.3277,2.3358,2.3245,2.3245,2.3266,2.3447,2.3469,2.3484,2.3342,2.3344,2.3346,2.3446,0,2.3091,2.3166,2.3152,2.3226,2.326,2.3228,2.3266,2.3279,2.3278,2.3307,2.3305,2.3338,2.3301,2.331,2.3341,2.3341,2.3394,2.3334,2.3377,2.3379,2.3375,2.3501,2.3524,2.3618,2.3458,2.346,2.3462,0,2.321,2.3233,2.331,2.3321,2.3334,2.3369,2.3395,2.3422,2.3437,2.3434,2.3451,2.3432,2.3477,2.343,2.3492,2.3451,2.3468,2.3471,2.3474,2.3478,2.3426,2.351,2.3647,2.3661,2.3482,2.348,2.3479,0,2.3299,2.3349,2.3402,2.3412,2.3425,2.345,2.3457,2.3469,2.3487,2.351,2.3522,2.3549,2.3564,2.3586,2.3576,2.3542,2.364,2.3592,2.3639,2.364,2.3662,2.3661,2.3805,2.3671,2.3671,2.3671,2.3671,0,2.3406,2.3455,2.3442,2.3475,2.3529,2.3513,2.3567,2.357,2.3582,2.3615,2.3588,2.362,2.3604,2.3635,2.3627,2.368,2.3687,2.3686,2.3684,2.3689,2.3689,2.37,2.3694,2.3675,2.3674,2.3673,2.3672,0,2.3515,2.3508,2.3564,2.3572,2.3575,2.3615,2.3622,2.3653,2.365,2.3693,2.3702,2.3698,2.3733,2.3725,2.3763,2.3758,2.3825,2.3814,2.382,2.3818,2.3867,2.3863,2.4023,2.4044,2.3897,2.3898,2.3899,0,2.3584,2.3621,2.3633,2.3654,2.3663,2.3696,2.3715,2.3701,2.3722,2.3742,2.3771,2.3804,2.383,2.3888,2.3889,2.3918,2.3908,2.3962,2.3912,2.3917,2.391,2.3909,2.3913,2.3973,2.3974,2.3976,2.3977,0,2.3708,2.3703,2.3731,2.3759,2.3783,2.3804,2.3822,2.3841,2.3828,2.3853,2.3889,2.3909,2.3949,2.3983,2.401,2.4017,2.3996,2.3993,2.4005,2.4012,2.4015,2.4015,2.3849,2.3989,2.3988,2.3987,2.3986,2.3986,2.38,2.3832,2.3846,2.3879,2.3892,2.391,2.394,2.3942,2.3971,2.4003,2.3992,2.4034,2.4049,2.4084,2.4095,2.4127,2.4107,2.4125,2.413,2.4135,2.4142,2.4009,2.4132,2.4132,2.4131,2.4131,2.4131,0,2.3923,2.3931,2.3962,2.3989,2.4016,2.3993,2.4013,2.4036,2.4073,2.4089,2.4115,2.4158,2.419,2.4194,2.4225,2.4251,2.4242,2.426,2.4258,2.426,2.4157,2.4144,2.4267,2.4267,2.4267,2.4266,2.4266,2.4266,2.3991,2.4045,2.4042,2.4102,2.4109,2.415,2.4164,2.4181,2.4194,2.4242,2.4269,2.4272,2.4283,2.4315,2.4345,2.4345,2.4358,2.438,2.4377,2.4281,2.4267,2.4254,2.4242,2.4383,2.4383,2.4477,2.4478,2.4479]},{"header":{"parameterUnit":"m.s-1","parameterCategory":1,"la1":30.2991,"la2":30.254,"lo1":-89.0895,"lo2":-89.0444,"dy":0.0017,"dx":0.0017,"nx":28,"ny":28,"refTime":"2025-07-29T03:00:00:Z","depth":0,"parameterNumber":3,"parameterNumberName":"V-component_of_WINDS"},"data":[0,0,0,0,0,0,0,0,0,0,0,0,0,0,0,0,0,0,0,0,0,0,0,0,0,0,0,0,0,0,0,0,0,0,0,0,0,0,0,0,0,0,0,0,0,0,0,0,0,0,0,0,0,0,0,0,0,0,-2.136,-2.1361,0,-2.1404,-2.1405,-2.1405,-2.1387,-2.1386,-2.1385,-2.1384,-2.1428,-2.143,-2.1432,0,0,0,0,0,0,0,0,0,0,0,0,0,-2.1258,-2.126,-2.136,-2.1361,-2.1361,-2.1404,-2.1405,-2.1406,-2.1387,-2.1386,-2.1384,-2.1383,-2.1427,-2.143,-2.1432,0,0,0,0,0,0,0,0,0,0,0,0,0,-2.1302,-2.1261,-2.136,-2.1357,-2.1357,-2.1404,-2.1405,-2.1406,-2.1387,-2.1386,-2.1384,-2.1382,-2.1426,-2.1429,-2.1433,-2.1485,0,0,-2.1443,-2.1444,0,0,0,0,0,0,0,0,-2.13,-2.1306,-2.1357,-2.1357,-2.1358,-2.1388,-2.1385,-2.1432,-2.1388,-2.1376,-2.1384,-2.1382,-2.1416,-2.142,-2.1432,-2.1487,-2.1489,-2.1443,-2.1445,-2.1446,-2.1447,0,0,0,0,0,0,0,-2.1297,-2.1304,-2.1378,-2.1358,-2.1358,-2.1353,-2.1358,-2.1394,-2.1404,-2.1377,-2.1375,-2.1381,-2.1416,-2.1429,-2.1433,-2.1489,-2.1443,-2.1446,-2.1448,-2.1449,-2.159,-2.1592,0,0,0,0,0,0,-2.1294,-2.1302,-2.1376,-2.1379,-2.1324,-2.1356,-2.1361,-2.138,-2.1404,-2.1406,-2.1382,-2.138,-2.1424,-2.1429,-2.1434,-2.1497,-2.1446,-2.1449,-2.1451,-2.1588,-2.159,-2.1592,0,0,0,0,0,0,-2.1292,-2.1301,-2.1374,-2.134,-2.1349,-2.136,-2.1381,-2.1382,-2.1395,-2.1408,-2.141,-2.1394,-2.1423,-2.143,-2.1473,-2.1498,-2.1451,-2.1454,-2.1586,-2.1589,-2.1591,-2.1623,0,0,0,0,0,0,-2.1289,-2.13,-2.132,-2.1341,-2.1351,-2.1412,-2.1383,-2.1384,-2.14,-2.1398,-2.1419,-2.1421,-2.1422,-2.1468,-2.1476,-2.1502,-2.1456,-2.1584,-2.1587,-2.1591,-2.162,-2.1627,-2.1632,0,0,0,0,0,-2.1285,-2.1327,-2.1321,-2.133,-2.1376,-2.1414,-2.142,-2.142,-2.1403,-2.1423,-2.1432,-2.142,-2.1494,-2.1472,-2.1481,-2.1509,-2.1582,-2.1586,-2.159,-2.1617,-2.1625,-2.1632,0,0,0,0,0,0,-2.1309,-2.133,-2.1323,-2.1373,-2.1392,-2.1411,-2.1436,-2.1429,-2.1453,-2.1449,-2.1449,-2.1454,-2.1498,-2.1508,-2.1483,-2.1561,-2.1536,-2.1542,-2.1553,-2.1561,-2.1567,-2.1564,-2.1459,0,0,0,0,0,-2.132,-2.1349,-2.1365,-2.1407,-2.1417,-2.1425,-2.1441,-2.144,-2.146,-2.1467,-2.1479,-2.1498,-2.1526,-2.1544,-2.157,-2.1621,-2.1626,-2.1645,-2.1651,-2.1656,-2.1661,-2.1689,-2.1698,-2.1606,-2.1606,-2.1606,0,0,-2.1342,-2.1357,-2.1376,-2.1412,-2.1427,-2.1457,-2.1432,-2.1464,-2.1487,-2.1472,-2.1514,-2.1523,-2.1544,-2.1592,-2.1613,-2.1601,-2.1688,-2.1661,-2.1665,-2.1667,-2.1694,-2.1703,-2.1711,-2.1608,-2.1608,-2.1607,0,0,-2.1399,-2.1414,-2.145,-2.1466,-2.1488,-2.1493,-2.1502,-2.1522,-2.1528,-2.157,-2.156,-2.1586,-2.1633,-2.1649,-2.1663,-2.1727,-2.1718,-2.1735,-2.1768,-2.1796,-2.1803,-2.1809,-2.1832,-2.184,-2.174,-2.1741,-2.1741,0,-2.1424,-2.147,-2.147,-2.1504,-2.152,-2.1509,-2.1547,-2.1561,-2.1591,-2.1602,-2.1588,-2.1648,-2.1661,-2.1713,-2.1728,-2.174,-2.175,-2.1733,-2.1802,-2.1808,-2.1814,-2.1836,-2.1845,-2.1743,-2.1742,-2.1742,-2.1742,0,-2.15,-2.1531,-2.1558,-2.1588,-2.1607,-2.1643,-2.1648,-2.1668,-2.1665,-2.1672,-2.1715,-2.1731,-2.176,-2.1772,-2.177,-2.1823,-2.1815,-2.1802,-2.1776,-2.1825,-2.1846,-2.1854,-2.1745,-2.1745,-2.1744,-2.1744,0,0,-2.1572,-2.1602,-2.1612,-2.1625,-2.165,-2.1674,-2.1709,-2.1738,-2.1755,-2.1776,-2.1805,-2.1846,-2.1834,-2.185,-2.1849,-2.1874,-2.1923,-2.1857,-2.1857,-2.1869,-2.1984,-2.1994,-2.2004,-2.1917,-2.1919,-2.192,-2.1982,0,-2.1631,-2.1692,-2.1694,-2.175,-2.1779,-2.177,-2.18,-2.1819,-2.1826,-2.1851,-2.1859,-2.1888,-2.187,-2.188,-2.1903,-2.1912,-2.1946,-2.1908,-2.1945,-2.1946,-2.194,-2.2014,-2.2025,-2.2083,-2.199,-2.1992,-2.1993,0,-2.1707,-2.1732,-2.1791,-2.1812,-2.1824,-2.1851,-2.1879,-2.1903,-2.1924,-2.1927,-2.1946,-2.1942,-2.1977,-2.1951,-2.2,-2.1974,-2.1989,-2.1996,-2.1998,-2.2002,-2.1972,-2.202,-2.2101,-2.211,-2.2005,-2.2004,-2.2003,0,-2.1754,-2.1802,-2.1843,-2.1855,-2.1881,-2.19,-2.1911,-2.193,-2.1948,-2.1972,-2.1983,-2.2011,-2.2026,-2.2047,-2.205,-2.2031,-2.21,-2.2074,-2.2104,-2.2104,-2.2118,-2.2117,-2.2203,-2.2128,-2.2128,-2.2128,-2.2128,0,-2.182,-2.1857,-2.1865,-2.1891,-2.1932,-2.1933,-2.1974,-2.1984,-2.2001,-2.2028,-2.2021,-2.2047,-2.205,-2.2077,-2.208,-2.212,-2.2127,-2.2131,-2.2131,-2.2131,-2.2131,-2.2141,-2.2137,-2.213,-2.213,-2.2129,-2.2129,0,-2.1879,-2.1886,-2.1931,-2.1952,-2.1958,-2.1987,-2.2004,-2.2029,-2.2036,-2.2071,-2.2079,-2.209,-2.2121,-2.2126,-2.2163,-2.2165,-2.2213,-2.2209,-2.2206,-2.2206,-2.2236,-2.2233,-2.2331,-2.2344,-2.226,-2.2261,-2.2262,0,-2.192,-2.1949,-2.1972,-2.199,-2.2003,-2.2032,-2.205,-2.2053,-2.2072,-2.2098,-2.212,-2.215,-2.2175,-2.2225,-2.2236,-2.2264,-2.2261,-2.2293,-2.2265,-2.2265,-2.2261,-2.226,-2.2263,-2.2299,-2.2299,-2.23,-2.2301,0,-2.1993,-2.1995,-2.2022,-2.205,-2.2072,-2.2095,-2.2116,-2.2131,-2.2136,-2.2158,-2.219,-2.2209,-2.2247,-2.2278,-2.2306,-2.2317,-2.231,-2.231,-2.2318,-2.2319,-2.2316,-2.2318,-2.2221,-2.2307,-2.2307,-2.2306,-2.2306,-2.2306,-2.2045,-2.207,-2.209,-2.212,-2.2137,-2.2157,-2.2181,-2.2191,-2.2218,-2.2249,-2.2249,-2.2285,-2.2305,-2.2342,-2.2355,-2.2383,-2.2372,-2.2384,-2.2388,-2.2391,-2.2394,-2.2312,-2.2388,-2.2388,-2.2387,-2.2387,-2.2387,0,-2.2117,-2.213,-2.2158,-2.2188,-2.2212,-2.2204,-2.2227,-2.2247,-2.2278,-2.2298,-2.2323,-2.236,-2.2389,-2.2403,-2.2432,-2.2452,-2.2449,-2.2459,-2.2458,-2.2461,-2.2401,-2.2391,-2.2461,-2.2461,-2.2461,-2.2461,-2.2461,-2.2461,-2.2158,-2.22,-2.2205,-2.2254,-2.2267,-2.2302,-2.2316,-2.2334,-2.235,-2.2392,-2.2417,-2.2426,-2.2443,-2.2473,-2.25,-2.2504,-2.2515,-2.2526,-2.2528,-2.2472,-2.2465,-2.2458,-2.2448,-2.2529,-2.2529,-2.2585,-2.2586,-2.2586]}]]